Wind_Speed
16 16 16 16 16 16 16 17 16 15 15 17 17 16 16 15 14 14 15 15 15 15 15 15 15 14 13 13 13 13 13 12 11 11 11 11 11 10 11 11 11 11 10 10
17 16 15 15 15 16 17 17 16 16 16 19 19 18 18 17 16 15 16 17 17 15 16 16 15 14 13 13 13 13 12 12 12 12 12 11 11 11 11 11 11 11 11 12
16 15 16 16 16 17 17 17 16 17 18 19 19 20 19 18 17 16 16 17 16 16 16 16 15 15 13 12 12 12 12 12 13 13 12 12 11 11 11 11 11 11 12 12
16 16 17 17 17 17 16 16 16 16 18 19 20 20 19 18 17 14 13 13 14 15 16 15 15 14 12 11 11 12 12 13 13 14 13 13 12 11 11 11 12 12 12 13
15 16 17 17 17 17 16 17 18 17 18 20 21 21 19 18 17 14 14 14 14 14 15 13 13 12 12 13 13 13 14 13 14 15 14 13 12 12 12 12 12 12 13 13
15 16 16 16 17 18 19 20 20 19 19 21 20 21 20 17 17 16 17 17 16 15 15 13 13 12 12 13 14 15 15 14 14 15 14 13 13 13 13 13 13 13 14 14
16 16 15 16 18 19 20 21 21 21 21 21 19 22 21 18 18 18 19 18 17 17 15 13 13 11 12 13 14 15 14 14 14 15 14 13 14 14 13 13 13 14 14 14
16 16 16 16 17 19 21 22 22 22 21 20 20 23 21 20 20 20 19 19 18 16 14 14 14 14 14 14 14 15 15 15 15 15 14 13 14 14 14 13 13 14 14 14
17 16 16 17 17 18 20 21 20 21 20 20 20 22 21 21 21 20 19 18 18 16 15 14 15 15 15 14 15 16 15 15 14 14 13 13 14 14 14 13 14 14 14 14
18 18 17 17 17 15 16 17 19 20 21 22 21 22 21 21 20 19 19 19 18 17 16 16 16 16 15 15 16 16 16 16 15 14 14 14 14 13 13 13 13 13 13 13
18 19 18 17 17 15 17 18 21 22 23 24 25 23 21 20 20 19 19 20 19 19 19 17 16 17 16 16 17 17 16 16 16 15 14 14 14 14 13 13 13 13 12 12
19 19 20 18 17 18 19 20 22 24 24 25 25 25 22 21 20 20 21 22 22 20 19 19 18 17 17 17 17 18 17 16 16 16 15 15 15 14 13 14 13 13 13 12
21 21 21 20 20 21 22 23 24 25 25 25 24 23 21 21 19 20 21 21 22 21 20 19 18 18 18 18 17 16 16 15 15 15 16 15 15 14 13 13 13 12 12 12
22 22 22 21 21 22 23 23 24 24 25 24 24 24 22 21 19 19 19 20 21 20 19 18 18 18 18 17 17 17 16 15 15 15 15 15 15 14 13 12 12 12 12 12
23 23 22 21 21 22 23 23 24 25 25 24 22 23 22 21 21 20 20 21 20 20 20 19 19 18 18 17 17 16 16 16 16 15 15 15 14 14 13 13 13 12 12 12
23 22 20 20 21 23 24 23 23 24 24 23 23 22 22 21 22 22 22 22 21 21 20 19 19 18 18 16 16 16 17 17 17 16 15 14 14 13 13 12 12 13 13 12
22 22 22 22 21 23 23 21 21 22 22 22 22 22 22 23 22 23 24 23 21 20 20 20 19 18 19 19 18 17 16 17 17 16 15 14 14 14 13 13 12 13 13 13
22 23 23 22 22 23 22 21 21 22 21 21 23 22 22 22 23 23 24 23 22 21 20 20 19 18 19 19 19 18 17 18 17 16 14 14 14 14 14 14 14 14 13 13
24 24 24 24 24 22 21 22 22 22 21 22 22 22 22 22 22 23 23 23 21 21 21 21 20 19 19 19 18 18 18 17 17 17 15 14 13 13 13 13 12 12 12 12
24 24 24 24 24 22 19 20 21 20 20 21 22 21 20 20 21 22 22 23 22 21 21 21 20 20 19 18 18 18 18 17 17 17 16 15 15 14 13 12 12 12 11 11
23 23 24 24 23 22 21 21 19 20 19 19 20 20 20 20 20 20 21 21 22 21 21 20 20 19 18 18 18 17 17 16 17 16 16 15 15 15 15 14 13 13 13 12
23 23 23 23 24 22 21 21 20 19 20 19 19 20 20 20 20 19 18 18 20 21 21 21 20 19 19 18 18 18 17 17 17 17 16 16 16 16 15 14 14 14 13 12
23 23 22 23 23 23 22 21 20 20 21 21 20 20 21 21 20 20 18 17 18 19 19 19 18 19 19 19 19 18 18 18 17 17 17 17 16 16 15 15 15 14 14 12
21 22 23 24 24 24 22 21 21 21 21 21 20 21 21 20 19 19 19 18 17 17 18 18 18 18 18 18 18 18 18 18 18 17 17 16 16 16 15 15 15 15 15 14
22 22 23 24 23 23 23 22 21 22 22 21 21 20 20 19 18 19 19 18 17 16 17 17 16 16 17 17 17 17 17 17 17 16 16 16 15 15 15 15 14 14 15 14
23 24 23 23 23 24 23 22 21 21 21 21 21 20 20 19 19 20 20 18 17 16 17 16 17 17 17 17 17 17 17 17 16 16 16 16 16 16 16 15 14 13 14 14
Wind_Direction
233 235 237 241 244 247 248 249 246 242 238 242 244 249 253 253 255 259 256 257 264 271 276 282 284 286 289 293 297 299 300 301 298 299 295 290 284 281 283 284 284 286 288 288
233 234 236 239 243 246 248 247 246 241 238 243 245 245 250 250 253 260 258 258 263 265 273 276 279 280 281 287 291 295 299 300 301 298 297 293 285 284 286 284 283 282 284 284
236 237 238 238 241 244 246 246 244 243 239 242 247 246 247 250 254 260 261 259 260 266 269 275 282 282 282 286 289 290 292 295 299 297 295 293 290 287 285 283 284 285 285 284
234 236 239 240 241 244 244 245 246 245 241 240 245 252 250 249 252 257 261 260 259 264 264 270 279 283 286 288 287 290 289 292 296 296 293 291 288 288 285 282 283 282 283 282
233 237 241 244 245 244 244 244 244 245 246 244 246 251 251 252 251 253 256 261 265 266 263 267 277 282 286 288 290 290 288 290 292 292 292 291 288 288 286 283 282 281 282 282
234 237 244 247 247 244 243 244 245 246 250 246 246 250 252 252 254 255 257 262 262 265 264 268 277 281 283 287 289 289 288 287 289 288 289 290 288 287 285 283 283 284 283 282
236 239 244 247 246 242 241 243 245 245 246 247 246 247 249 249 252 256 260 260 259 264 265 269 273 276 280 285 288 288 288 287 288 287 289 290 290 288 284 285 287 289 288 284
244 243 243 245 249 248 247 245 246 251 249 247 245 247 248 247 249 253 259 260 256 257 261 269 270 273 277 281 284 285 288 288 288 287 288 290 292 290 285 282 286 290 290 287
247 245 243 247 250 247 244 242 247 252 250 252 248 249 250 251 248 251 255 259 255 253 259 264 267 267 273 279 284 283 283 285 287 285 284 287 290 290 289 283 284 287 288 287
248 251 249 250 247 243 244 243 244 248 252 254 252 252 255 250 250 250 255 257 255 251 256 259 260 263 270 274 278 278 281 282 285 285 285 286 293 291 289 286 285 286 290 290
253 252 251 249 246 240 242 243 246 252 255 254 256 258 259 260 254 251 252 252 250 255 257 258 258 263 267 269 272 274 274 278 282 285 287 290 293 290 290 290 292 289 288 292
251 250 251 247 242 242 246 247 247 250 253 254 257 261 259 258 257 254 256 255 254 255 259 264 263 263 265 267 270 272 272 278 281 282 284 285 289 289 290 291 288 287 290 293
252 254 253 246 243 243 244 245 249 251 252 253 255 261 260 257 257 257 258 256 257 256 259 263 261 258 263 267 269 272 275 277 279 281 285 286 288 287 287 287 286 287 289 292
254 255 252 248 247 247 246 247 247 248 252 254 255 261 262 260 259 259 259 259 259 258 257 258 259 261 261 264 267 270 275 274 276 279 283 285 286 286 286 284 284 285 286 287
254 253 251 249 250 247 247 247 247 249 251 253 256 259 261 259 260 259 259 262 258 256 258 254 255 261 259 260 264 263 270 272 274 277 280 282 283 283 283 282 282 284 287 287
253 253 250 247 251 251 248 246 246 249 250 252 257 258 257 256 258 260 258 258 259 260 259 255 257 260 261 262 260 261 265 267 270 274 277 276 277 279 281 283 285 285 288 288
251 253 251 250 252 252 252 256 254 254 252 256 259 260 258 257 260 260 255 255 259 259 258 260 258 259 261 263 266 264 260 261 265 269 274 273 270 273 276 280 285 285 285 287
251 251 251 253 254 256 258 260 258 259 260 259 259 260 261 260 263 260 255 256 261 258 257 257 260 261 262 265 270 270 267 264 263 266 270 270 269 269 273 277 281 282 282 283
251 252 252 254 257 256 256 257 259 261 259 260 259 257 259 261 264 261 256 255 258 256 255 256 260 264 264 265 267 270 270 267 262 263 264 266 268 269 269 273 278 282 282 282
250 252 253 253 255 258 257 257 258 260 262 258 257 255 259 263 264 259 256 258 257 255 254 256 259 262 263 266 266 267 269 266 262 261 262 265 268 267 268 271 276 281 281 283
250 252 253 253 253 258 259 257 259 260 263 260 257 256 259 264 266 263 255 255 254 253 253 254 258 260 262 264 264 264 266 266 261 258 258 261 265 266 266 271 277 280 278 279
249 250 250 249 252 255 255 258 258 258 261 260 259 259 262 263 267 264 256 254 254 252 250 253 255 256 259 260 260 261 264 263 261 258 255 259 261 262 263 268 276 281 278 280
247 247 247 245 249 253 254 257 258 258 260 259 259 261 265 265 266 261 254 255 258 254 251 253 255 255 255 256 257 257 260 260 260 257 255 256 259 259 260 264 270 275 277 279
249 246 245 246 247 251 254 255 257 257 258 260 259 261 264 267 267 261 257 259 260 257 257 256 256 253 254 255 257 257 258 259 257 256 254 252 254 256 258 261 266 271 272 273
248 248 249 248 248 251 253 254 254 255 259 261 258 258 260 262 261 257 254 255 256 255 254 253 253 253 254 254 255 253 253 254 253 252 251 252 252 253 256 260 265 270 270 271
249 249 251 250 248 250 252 252 253 255 257 256 255 257 259 260 260 257 253 254 256 258 256 252 252 254 253 253 253 253 251 250 252 252 250 252 251 253 256 259 262 265 263 265
Height
5838 5840 5841 5843 5844 5846 5846 5847 5847 5849 5850 5851 5852 5853 5855 5856 5856 5857 5858 5859 5860 5860 5861 5860 5860 5860 5859 5858 5857 5856 5854 5853 5852 5851 5850 5848 5847 5847 5846 5845 5845 5844 5843 5842
5834 5836 5837 5838 5839 5840 5841 5842 5843 5845 5845 5846 5846 5848 5849 5850 5852 5853 5854 5855 5856 5856 5857 5857 5857 5856 5855 5855 5854 5853 5852 5850 5849 5848 5847 5845 5845 5844 5843 5842 5841 5840 5840 5839
5830 5833 5833 5833 5834 5835 5836 5838 5839 5840 5841 5841 5842 5844 5845 5846 5847 5848 5849 5851 5852 5853 5853 5853 5853 5852 5852 5851 5851 5850 5849 5848 5846 5845 5844 5843 5841 5840 5839 5839 5838 5837 5836 5835
5826 5827 5828 5828 5830 5831 5832 5834 5835 5836 5837 5837 5839 5838 5841 5842 5843 5844 5845 5846 5847 5848 5849 5849 5849 5849 5848 5848 5848 5847 5846 5845 5844 5842 5841 5839 5838 5837 5836 5835 5834 5833 5832 5831
5821 5822 5823 5824 5826 5827 5828 5829 5830 5831 5832 5833 5834 5834 5836 5837 5838 5840 5841 5842 5843 5844 5844 5845 5846 5846 5846 5845 5845 5844 5843 5842 5841 5839 5838 5836 5835 5833 5832 5831 5830 5829 5828 5827
5817 5818 5819 5821 5822 5823 5824 5825 5826 5827 5828 5829 5831 5830 5831 5833 5834 5835 5836 5837 5839 5840 5840 5841 5842 5842 5842 5842 5841 5840 5839 5838 5837 5836 5834 5833 5831 5830 5828 5827 5826 5825 5824 5822
5812 5813 5814 5816 5817 5818 5819 5821 5821 5822 5823 5824 5826 5825 5827 5829 5830 5831 5832 5833 5834 5835 5836 5837 5838 5838 5838 5838 5837 5836 5835 5834 5833 5832 5830 5829 5827 5826 5824 5823 5822 5820 5819 5817
5807 5808 5810 5810 5811 5812 5814 5815 5817 5818 5818 5819 5820 5819 5823 5824 5825 5825 5826 5828 5830 5831 5832 5832 5833 5834 5833 5833 5833 5832 5831 5830 5829 5828 5826 5825 5823 5822 5820 5819 5817 5816 5814 5812
5801 5803 5805 5806 5807 5808 5809 5810 5812 5813 5813 5813 5814 5816 5818 5819 5820 5821 5822 5823 5824 5825 5827 5827 5828 5829 5828 5829 5829 5828 5827 5826 5824 5823 5822 5820 5819 5818 5816 5814 5813 5811 5809 5808
5796 5798 5800 5801 5802 5803 5804 5806 5807 5807 5808 5808 5810 5811 5814 5815 5815 5816 5817 5818 5820 5821 5821 5822 5823 5823 5823 5824 5824 5823 5822 5821 5820 5818 5817 5815 5814 5813 5811 5810 5808 5807 5805 5803
5791 5793 5795 5796 5797 5798 5800 5801 5801 5802 5803 5803 5804 5808 5809 5810 5811 5812 5813 5814 5815 5816 5817 5817 5817 5818 5818 5819 5818 5818 5817 5816 5815 5813 5812 5811 5809 5808 5806 5805 5803 5802 5801 5799
5786 5788 5789 5791 5793 5794 5795 5796 5796 5797 5798 5798 5799 5803 5803 5804 5805 5806 5807 5809 5809 5810 5811 5811 5811 5812 5813 5812 5812 5812 5812 5811 5810 5809 5808 5806 5805 5804 5802 5800 5799 5798 5797 5795
5781 5782 5784 5786 5789 5789 5789 5790 5791 5792 5792 5793 5794 5798 5797 5798 5799 5800 5801 5803 5803 5804 5804 5805 5805 5806 5807 5807 5807 5807 5806 5806 5805 5804 5803 5802 5800 5799 5797 5796 5794 5794 5793 5791
5776 5777 5779 5781 5782 5783 5784 5785 5786 5787 5787 5787 5789 5790 5791 5792 5793 5794 5795 5796 5797 5797 5798 5799 5800 5800 5801 5801 5801 5801 5801 5800 5800 5799 5798 5797 5796 5795 5793 5792 5791 5790 5789 5787
5770 5771 5773 5774 5776 5777 5778 5779 5780 5781 5782 5782 5784 5784 5785 5787 5788 5789 5789 5790 5791 5791 5791 5792 5793 5794 5794 5794 5795 5795 5795 5795 5794 5794 5793 5792 5792 5790 5789 5788 5787 5786 5785 5783
5764 5765 5767 5769 5770 5771 5772 5773 5774 5775 5776 5777 5778 5779 5781 5781 5782 5783 5783 5784 5785 5786 5785 5786 5787 5787 5787 5787 5788 5789 5789 5789 5789 5789 5788 5787 5787 5786 5785 5784 5783 5781 5780 5779
5759 5760 5762 5763 5764 5765 5766 5767 5768 5769 5770 5771 5772 5774 5774 5775 5775 5776 5776 5777 5779 5780 5780 5780 5780 5781 5782 5782 5782 5783 5783 5783 5783 5783 5783 5782 5782 5781 5780 5780 5779 5777 5776 5775
5753 5754 5755 5757 5759 5760 5763 5761 5762 5763 5764 5765 5766 5767 5767 5768 5768 5768 5769 5771 5772 5773 5774 5774 5774 5775 5776 5776 5777 5777 5776 5777 5777 5777 5777 5777 5776 5776 5776 5775 5774 5773 5772 5772
5747 5748 5749 5751 5752 5753 5756 5756 5756 5757 5758 5759 5760 5760 5761 5761 5761 5762 5762 5764 5765 5766 5767 5768 5768 5769 5770 5770 5770 5770 5770 5770 5771 5771 5771 5771 5771 5771 5771 5771 5770 5769 5768 5768
5741 5742 5743 5744 5746 5747 5750 5750 5750 5752 5752 5752 5753 5753 5754 5754 5754 5756 5756 5757 5758 5759 5760 5762 5762 5763 5763 5763 5764 5764 5765 5765 5765 5765 5766 5766 5766 5766 5766 5766 5766 5765 5764 5763
5735 5736 5737 5738 5739 5741 5743 5743 5744 5746 5746 5746 5746 5747 5748 5748 5749 5750 5750 5750 5751 5753 5754 5755 5756 5757 5757 5757 5758 5758 5759 5759 5760 5760 5761 5761 5761 5761 5762 5762 5761 5761 5760 5759
5727 5729 5730 5732 5733 5737 5736 5736 5738 5739 5739 5739 5740 5741 5742 5743 5743 5743 5743 5744 5745 5745 5748 5749 5750 5750 5751 5751 5752 5753 5754 5754 5754 5755 5755 5756 5756 5756 5757 5757 5757 5757 5756 5755
5721 5723 5724 5726 5729 5729 5729 5730 5731 5732 5733 5734 5735 5735 5736 5737 5737 5737 5738 5739 5739 5740 5741 5742 5742 5744 5744 5745 5746 5747 5748 5748 5749 5749 5750 5750 5751 5751 5752 5752 5752 5752 5752 5751
5715 5716 5718 5719 5721 5722 5723 5724 5725 5727 5728 5729 5729 5730 5730 5730 5730 5731 5732 5733 5734 5734 5734 5735 5736 5737 5738 5739 5740 5740 5741 5742 5743 5744 5744 5745 5746 5746 5746 5747 5747 5747 5747 5747
5708 5710 5711 5712 5714 5716 5717 5718 5719 5721 5722 5722 5723 5724 5724 5724 5724 5725 5726 5727 5727 5728 5729 5730 5730 5731 5732 5733 5734 5734 5735 5736 5737 5738 5739 5739 5740 5741 5741 5742 5742 5743 5743 5742
5701 5703 5704 5705 5707 5709 5710 5711 5712 5713 5715 5715 5716 5717 5718 5718 5718 5719 5719 5720 5721 5722 5723 5724 5724 5725 5725 5726 5727 5728 5729 5730 5731 5732 5733 5734 5735 5736 5736 5737 5737 5737 5738 5737